フルス彗星

C/2017 U2 ( Fuls )

English version
Home page
Updated on September 10, 2020

---------------------------------------------------------------------

・ プロフィール

発見日 2017年10月22日
発見光度 21.2等
発見者 D. C. Fuls (Mount Lemmon)

・ 写真集

・ 軌道要素

Epoch 2017 Sept. 4.0 TT = JDT 2458000.5                                         
T 2017 Aug. 28.15993 TT                                 Rudenko                 
q   6.7008187            (2000.0)            P               Q                  
z  +0.0000141      Peri.  147.72988     +0.75562220     +0.42060518             
 +/-0.0000032      Node   149.70903     -0.56263132     +0.02426856             
e   0.9999057      Incl.   95.43756     +0.33538200     -0.90691914             
From 59 observations 2017 July 26-2018 Sept. 15, mean residual 0".4.            

・ 光度変化

        m1 = 4.5 + 5 logΔ + 15.0 log r

---------------------------------------------------------------------

軌道要素はM.P.E.C. 2020-R04に掲載されたものです。
光度グラフはComet for Windowsで作成したものです。

---------------------------------------------------------------------

Copyright(C) Seiichi Yoshida (comet@aerith.net). All rights reserved.